CAPE
0 0 0 0 0 0 0 0 0 0 0 0 0 0 0 0 0 0 0 0 0 0 0 0 0 0 0 0 0 0 8 43 55 28 0 0 0 0 0 0 1 1 1 1
0 0 0 0 0 0 0 0 0 0 0 0 0 0 0 0 0 0 0 0 0 0 0 0 0 0 0 0 0 0 0 0 45 40 7 0 0 0 0 0 0 1 1 1
0 0 0 0 0 0 0 0 0 0 0 0 0 0 0 0 0 0 0 0 0 0 0 0 0 0 0 0 0 0 0 0 1 9 0 0 0 0 0 0 0 1 1 1
0 0 0 0 0 0 0 0 0 0 0 0 0 0 0 0 0 0 0 0 0 0 0 0 0 0 0 0 0 0 0 0 0 0 0 0 0 0 0 0 0 0 1 1
0 0 0 0 0 0 0 0 0 0 0 0 0 0 0 0 0 0 0 0 0 0 0 0 0 0 0 0 0 0 0 0 0 0 0 0 0 0 0 0 0 0 0 1
0 0 0 0 0 0 0 0 0 0 0 0 0 0 0 0 0 0 0 0 0 0 0 0 0 0 0 0 0 0 0 0 0 0 0 0 0 0 0 0 0 0 0 1
0 0 0 0 0 0 0 0 0 0 0 0 0 0 0 0 0 0 0 0 0 0 0 0 0 0 0 0 0 0 0 0 0 0 0 0 0 0 0 0 0 0 0 1
0 0 0 0 0 0 0 0 0 0 0 0 0 0 0 0 0 0 0 0 0 0 0 0 0 0 0 0 0 0 0 0 0 0 0 0 0 0 0 0 0 0 1 2
0 0 0 0 0 0 0 0 0 0 0 0 0 0 0 0 0 0 0 0 0 0 0 0 0 0 0 0 0 0 0 0 0 0 0 0 0 0 0 0 0 1 2 3
0 0 0 0 0 0 0 0 0 0 1 0 6 0 0 1 2 1 1 1 0 0 0 0 0 0 0 0 0 0 0 0 0 1 0 0 0 0 0 0 1 2 3 3
0 0 0 0 0 0 0 0 0 3 2 0 1 0 0 0 0 1 1 4 14 5 1 0 0 0 0 0 0 0 0 1 0 0 0 0 1 1 0 1 1 2 2 1
0 0 0 0 0 0 0 0 0 0 0 0 2 0 1 2 2 4 4 2 3 6 0 0 0 0 0 0 0 1 0 1 1 0 0 1 0 0 0 0 0 1 2 0
0 0 0 0 0 0 0 0 0 1 1 1 0 3 3 3 2 1 2 2 1 1 0 2 0 0 0 0 0 0 1 1 0 0 0 0 0 0 0 1 0 1 0 0
0 0 0 0 0 0 0 0 0 1 1 2 0 0 1 2 2 1 1 0 1 0 0 0 0 0 0 0 1 1 1 1 0 0 0 0 0 0 0 0 1 1 1 0
0 0 0 0 0 0 0 0 1 0 1 1 1 1 1 2 2 1 0 0 0 0 0 1 1 1 1 0 0 0 1 0 0 0 0 0 0 0 0 0 0 0 0 0
0 0 0 0 0 0 0 0 0 1 2 1 2 1 1 1 2 1 0 1 0 0 0 0 1 0 0 0 0 1 0 0 0 0 0 0 0 0 0 0 0 0 0 0
0 0 0 0 0 0 0 0 0 0 0 1 1 2 1 1 2 3 1 0 0 0 0 0 1 0 0 0 0 1 0 0 0 0 0 0 0 0 0 0 0 0 0 0
0 0 0 0 0 0 0 0 0 0 0 0 1 2 0 0 1 1 1 0 0 0 0 0 0 0 0 0 1 0 0 0 0 0 0 0 0 0 0 0 0 0 0 0
0 0 0 0 0 0 0 0 0 0 0 0 1 1 1 0 0 0 0 0 0 0 0 0 0 0 0 0 1 0 0 0 0 0 0 0 0 0 0 0 0 0 0 0
0 0 0 0 0 0 0 0 0 0 0 0 0 0 0 0 0 0 0 0 0 0 0 0 0 0 1 0 0 0 0 0 0 0 0 0 0 0 0 0 0 0 0 0
0 0 0 0 0 0 0 0 0 0 0 0 0 0 0 0 0 0 0 0 0 0 0 0 0 0 0 0 0 0 0 0 0 0 0 0 0 0 0 0 0 0 0 0
0 0 0 0 0 0 0 0 0 0 0 0 0 0 0 0 0 0 0 0 0 0 0 0 0 0 0 0 0 0 0 0 0 0 0 0 0 0 0 0 0 0 0 0
0 0 0 0 0 0 0 0 0 0 0 0 0 0 0 0 0 0 1 0 0 0 0 0 0 0 0 0 0 0 0 0 0 0 0 0 0 0 0 0 0 0 0 0
0 0 0 0 0 0 0 0 0 0 0 0 0 0 0 0 0 0 0 1 0 0 0 0 0 0 0 0 0 0 0 0 0 0 0 0 0 0 0 0 0 0 0 0
0 0 0 0 0 0 0 0 0 0 0 0 0 0 0 0 0 0 0 0 1 0 0 0 1 0 0 0 0 0 0 0 0 0 0 0 0 0 0 0 0 0 0 0
0 0 0 0 0 0 0 0 0 0 0 0 0 0 0 0 0 0 0 0 0 0 0 0 0 0 0 0 0 0 0 0 0 0 0 0 0 0 0 0 0 0 0 0
0 0 0 0 0 0 0 0 0 0 0 0 0 0 0 0 0 0 0 0 1 1 0 0 0 0 0 0 0 0 0 0 0 0 0 0 0 0 0 0 0 0 0 0
CIN
0 0 0 0 0 0 0 0 -1 0 0 0 0 0 0 0 0 0 0 0 0 0 0 0 0 0 0 0 0 0 -151 -119 -117 -143 0 0 0 0 0 0 0 0 0 0
0 0 0 0 0 0 0 0 0 0 0 0 0 0 0 0 0 0 0 0 0 0 0 0 0 0 0 0 0 0 0 -39 -104 -121 -121 0 0 0 0 0 0 0 0 0
0 0 0 0 0 0 0 0 0 0 0 0 0 0 0 0 0 0 0 0 0 0 0 0 0 0 0 0 0 0 0 0 -42 -85 0 0 0 0 0 0 0 0 0 0
0 0 0 0 0 0 0 0 0 0 0 0 0 0 0 0 0 0 0 0 0 0 0 0 0 0 0 0 0 0 0 0 0 0 0 0 0 0 0 0 0 0 0 0
0 0 0 0 0 0 0 0 0 0 0 0 0 0 0 0 0 0 0 0 0 0 0 0 0 0 0 0 0 0 0 0 0 0 0 0 0 0 0 0 0 0 0 0
0 0 0 0 0 0 0 0 0 0 0 0 0 0 0 0 0 0 0 0 0 0 0 0 0 0 0 0 0 0 0 0 0 0 0 0 0 0 0 0 0 0 0 0
0 0 0 0 0 0 0 0 0 0 0 0 0 0 0 0 0 0 0 0 0 0 0 0 0 0 0 0 0 0 0 0 0 0 0 0 0 0 0 0 0 0 0 0
0 0 0 0 0 0 0 0 0 0 0 0 0 0 0 0 0 0 0 0 0 0 0 0 0 0 0 0 0 0 0 0 0 0 0 0 0 0 0 0 0 0 0 0
0 0 0 0 0 0 0 0 0 0 0 0 0 0 0 0 0 0 0 0 0 0 0 0 0 0 0 0 0 0 0 0 0 0 0 0 0 0 0 0 0 0 0 0
0 0 0 0 0 0 0 0 0 0 0 0 0 -1 0 -1 -1 -2 0 0 0 0 0 0 0 0 0 0 0 0 0 0 0 0 0 0 0 0 0 0 0 0 0 0
0 0 0 0 0 0 0 0 0 0 0 0 0 0 0 0 0 0 0 0 0 -1 -6 0 0 0 0 0 0 0 0 0 0 0 0 0 0 0 0 0 0 0 0 0
0 0 0 0 0 0 0 0 0 0 0 0 0 0 0 0 0 0 0 0 0 -1 0 0 0 0 0 0 0 0 0 0 0 0 0 0 0 0 0 0 0 0 0 0
0 0 0 0 0 0 0 0 0 0 0 0 0 0 0 0 0 0 -2 -1 0 0 0 0 0 0 0 0 0 0 0 0 0 0 0 0 0 0 0 0 0 0 0 0
0 0 0 0 0 0 0 0 0 0 0 0 0 0 0 0 0 0 -2 0 0 0 0 0 0 0 0 0 0 0 0 0 0 0 0 0 0 0 0 0 0 0 0 0
0 0 0 0 0 0 0 0 0 -1 -1 0 0 0 0 0 0 0 0 0 0 0 0 0 0 0 0 0 0 0 0 0 0 0 0 0 0 0 0 0 0 0 0 0
0 0 0 0 0 0 0 0 0 -1 -1 0 0 0 0 0 0 0 0 0 0 0 0 0 0 0 0 0 0 0 0 0 0 0 0 0 0 0 0 0 0 0 0 0
0 0 0 0 0 0 0 0 0 0 0 0 0 0 0 0 0 0 0 0 0 0 0 0 0 0 0 0 0 0 0 0 0 0 0 0 0 0 0 0 0 0 0 0
0 0 0 0 0 0 0 0 0 0 0 0 0 0 0 0 0 0 0 0 0 0 0 0 0 0 0 0 0 0 0 0 0 0 0 0 0 0 0 0 0 0 0 0
0 0 0 0 0 0 0 0 0 0 0 0 0 0 0 0 0 0 0 0 0 0 0 0 0 0 0 0 0 0 0 0 0 0 0 0 0 0 0 0 0 0 0 0
0 0 0 0 0 0 0 0 0 0 0 0 0 0 0 0 0 0 0 0 0 0 0 0 0 0 0 0 0 0 0 0 0 0 0 0 0 0 0 0 0 0 0 0
0 0 0 0 0 0 0 0 0 0 0 0 0 0 0 0 0 0 0 0 0 0 0 0 0 0 0 0 0 0 0 0 0 0 0 0 0 0 0 0 0 0 0 0
0 0 0 0 0 0 0 0 0 0 0 0 0 0 0 0 0 0 0 0 0 0 0 0 0 0 -1 0 0 0 0 0 0 0 0 0 0 0 0 0 0 0 0 0
0 0 0 0 0 0 0 0 0 0 0 0 0 0 0 0 0 0 0 0 0 0 0 0 0 0 0 0 0 0 0 0 0 0 0 0 0 0 0 0 0 0 0 0
0 0 0 0 0 0 0 0 0 0 0 0 0 0 0 0 0 0 0 0 0 0 0 0 0 0 0 0 0 0 0 0 0 0 0 0 0 0 0 0 0 0 0 0
0 0 0 0 0 0 0 0 0 0 0 0 0 0 0 0 0 0 0 0 0 0 0 0 0 0 0 0 0 0 0 0 0 0 0 0 0 0 0 0 0 0 0 0
0 0 0 0 0 0 0 0 0 0 0 0 0 0 0 0 0 0 0 0 0 0 0 0 0 0 0 0 0 0 0 0 0 0 0 0 0 0 0 0 0 0 0 0
0 0 0 0 0 0 0 0 0 0 0 0 0 0 0 0 0 0 0 0 0 0 0 0 0 0 0 0 0 0 0 0 0 0 0 0 0 0 0 0 0 0 0 0
Wind_Speed
36 35 38 42 45 46 48 48 54 61 59 54 49 48 40 42 44 43 43 40 36 34 35 34 32 32 32 33 33 33 35 34 33 34 31 30 30 27 25 22 21 19 18 16
41 37 40 46 47 45 45 45 47 48 52 44 41 39 38 38 39 39 38 35 33 33 34 35 35 36 36 35 37 36 37 37 35 33 33 31 31 27 25 24 24 23 21 21
44 38 43 52 42 40 40 41 44 51 45 40 38 35 36 39 40 41 38 30 34 35 35 36 37 38 39 38 37 37 38 38 35 33 34 34 31 29 26 24 22 25 23 20
44 40 55 40 35 36 40 42 41 40 41 41 38 38 39 38 38 40 34 39 42 41 42 42 41 41 41 40 40 40 41 39 37 36 36 35 34 33 30 26 23 21 21 18
41 42 44 44 37 34 40 46 39 43 42 38 40 41 43 38 37 38 39 44 46 44 44 45 45 45 41 41 43 43 43 41 38 36 37 36 36 33 30 28 25 22 19 16
33 44 51 41 35 31 31 51 37 34 38 42 44 48 47 45 46 47 46 46 47 42 46 44 46 42 40 44 45 45 45 43 37 36 35 35 34 32 30 27 25 20 19 16
36 40 40 32 30 27 40 43 35 43 47 47 48 45 46 48 49 46 45 45 43 44 43 41 39 37 41 42 44 44 42 36 34 33 33 32 34 33 29 26 23 22 20 17
32 38 45 22 25 33 35 42 39 36 30 24 20 20 21 23 24 24 25 28 29 31 33 35 36 37 41 40 39 35 33 32 30 30 30 33 34 34 31 25 23 21 21 19
26 30 23 27 33 30 34 40 44 34 39 35 26 27 30 32 38 34 36 36 35 37 32 29 31 27 17 39 34 32 33 32 31 30 30 32 32 32 29 26 24 22 21 20
27 25 29 28 32 34 37 44 42 39 41 37 33 49 38 26 39 41 34 34 38 37 36 34 36 32 25 30 28 28 29 29 29 30 32 31 31 30 26 23 23 21 22 20
26 29 26 26 29 36 41 41 41 40 39 34 21 23 23 23 23 25 28 37 37 34 26 29 31 29 30 26 21 24 25 26 23 27 30 28 27 26 24 22 20 19 18 17
27 22 29 38 36 40 39 41 45 44 43 45 21 18 20 23 28 31 34 37 39 35 44 17 29 41 26 12 10 5 3 1 15 25 24 22 21 22 21 19 17 16 14 13
24 30 32 33 35 34 38 41 42 42 40 32 20 24 25 27 29 31 29 30 32 30 41 21 37 33 28 9 6 5 6 7 14 15 14 15 15 14 13 14 13 11 9 9
28 28 28 28 34 33 30 40 41 40 38 37 36 33 29 27 29 25 18 18 31 6 32 33 32 31 17 6 6 11 12 11 10 9 8 9 8 9 9 8 8 6 3 2
23 20 11 21 25 30 33 40 41 42 43 45 40 33 35 31 24 14 11 14 5 18 29 29 29 28 12 5 6 10 12 10 10 11 10 10 9 8 9 9 7 7 8 4
20 18 22 26 29 26 32 39 40 42 43 45 45 45 39 27 19 11 18 23 23 25 26 26 25 22 9 8 9 8 8 10 9 10 10 9 9 9 13 13 10 5 7 9
18 25 27 29 31 35 34 27 29 34 40 44 44 45 38 31 25 33 26 25 25 23 23 22 21 17 10 12 10 9 8 9 9 9 8 8 9 6 7 9 12 11 9 9
17 22 22 27 34 36 37 39 39 22 16 15 36 44 43 35 31 21 31 27 25 26 24 24 22 15 10 10 9 9 9 8 7 7 7 6 4 5 4 6 9 12 12 11
17 22 24 28 30 34 37 39 40 38 30 30 38 44 42 31 39 37 33 32 31 31 30 28 26 20 13 9 9 10 9 8 6 5 4 4 3 1 3 5 8 10 11 12
22 24 25 28 29 31 35 36 38 39 38 40 39 41 43 42 41 39 37 34 29 31 31 31 29 23 15 10 8 9 9 7 5 5 4 3 3 2 1 2 5 6 7 8
23 27 26 28 29 29 32 34 37 39 41 40 42 43 43 42 41 41 38 35 32 31 30 29 25 20 14 9 6 7 6 5 2 1 2 2 5 5 2 1 4 4 4 5
23 24 26 28 30 31 31 33 35 38 40 40 41 43 43 43 42 40 36 30 33 33 30 27 22 17 14 9 6 5 3 3 0 1 1 2 2 3 4 4 3 2 3 3
24 26 27 28 30 31 31 34 34 36 39 41 43 44 43 43 42 42 40 38 35 34 29 26 21 19 13 8 6 4 2 0 1 2 3 4 2 4 4 4 3 3 3 4
26 28 29 29 29 32 35 36 35 36 38 40 42 43 44 45 44 40 40 40 38 35 29 26 23 20 17 9 6 5 4 2 2 2 3 3 3 3 1 2 2 2 1 1
26 30 32 31 33 35 36 37 37 39 41 44 44 44 45 44 45 46 43 41 39 37 32 27 23 21 17 12 5 3 2 2 1 1 2 2 2 2 1 1 1 1 1 1
32 34 34 34 35 35 35 36 39 40 43 47 47 47 48 48 47 46 44 42 40 37 34 30 25 20 15 13 13 12 10 7 3 2 2 2 2 3 3 3 3 3 3 3
34 34 35 37 34 34 35 36 40 44 45 48 50 49 49 49 48 46 44 42 39 38 35 32 27 24 21 18 15 14 13 10 7 5 4 4 5 4 4 4 4 4 4 4
Wind_Direction
293 296 298 298 299 299 298 299 297 301 302 305 306 308 307 308 309 309 311 313 314 313 314 315 317 318 317 313 315 318 314 318 320 320 321 316 317 320 318 319 314 310 308 297
296 298 298 298 299 302 302 302 302 304 304 310 309 308 307 308 310 310 311 310 312 313 312 313 315 314 315 314 311 314 312 313 319 323 322 323 322 320 316 315 307 301 300 288
296 303 304 299 306 307 308 306 307 306 311 318 315 314 312 312 312 311 310 310 313 313 313 312 311 311 310 313 314 314 314 312 313 316 318 321 323 317 313 312 309 297 293 291
299 305 297 308 317 315 310 308 309 310 312 313 313 312 311 310 312 314 309 308 307 306 305 306 308 308 308 309 310 310 309 310 309 310 311 314 315 312 308 307 303 301 291 291
301 301 306 309 317 318 314 309 312 311 312 314 313 313 309 312 313 311 310 308 306 305 305 306 305 305 306 306 306 305 303 305 305 306 307 309 309 309 308 306 301 298 291 287
306 304 303 313 320 320 321 309 319 321 318 316 315 310 309 311 311 308 305 306 307 304 305 305 304 306 304 303 304 303 301 300 302 302 302 303 305 306 307 305 301 298 289 284
305 305 308 319 323 327 313 317 324 318 315 313 310 308 310 311 309 310 309 308 307 305 304 305 306 305 304 304 304 304 304 304 300 301 300 302 301 303 303 302 297 291 287 280
310 309 310 333 328 319 320 319 323 324 326 319 301 291 300 303 291 291 300 307 313 315 313 310 310 309 303 303 307 312 311 309 305 299 298 298 298 298 297 296 292 285 279 275
308 311 323 322 319 324 324 320 315 325 323 324 310 309 314 315 318 315 314 312 310 308 307 307 310 312 293 277 312 313 309 306 303 302 299 297 296 297 292 288 286 280 273 269
316 321 318 323 320 321 322 317 323 324 323 323 320 307 279 294 320 317 315 312 310 306 305 305 305 305 304 312 311 310 307 306 301 300 296 296 296 296 291 290 282 277 271 267
312 317 326 322 328 325 321 325 330 330 329 329 308 314 309 300 308 314 316 317 313 311 306 306 310 312 312 311 313 316 314 295 301 298 294 299 301 297 293 295 288 280 274 267
313 324 311 302 318 320 326 329 320 323 304 312 333 314 322 322 328 327 324 319 312 309 299 271 306 280 315 330 343 15 88 224 321 300 306 309 309 307 304 297 297 290 278 269
307 299 307 318 324 331 330 301 304 306 299 289 295 339 334 331 332 328 324 322 315 315 290 314 270 262 296 347 22 60 45 24 344 335 332 328 322 323 314 309 310 307 295 277
278 302 320 333 327 340 349 330 322 327 335 340 342 347 344 340 341 339 335 268 264 287 295 280 257 251 316 349 2 348 350 2 7 10 15 7 2 341 340 334 327 341 14 86
297 326 15 357 354 351 348 327 325 327 324 325 343 351 350 351 353 343 325 267 263 342 281 275 277 286 337 12 8 0 357 10 16 5 25 34 17 22 44 50 48 64 83 102
315 349 351 352 348 1 357 344 341 334 334 330 331 333 351 357 358 323 296 344 343 287 291 299 289 295 4 11 13 38 42 30 31 31 27 37 47 55 78 78 72 76 91 102
341 332 337 340 343 340 350 5 4 357 348 334 322 326 355 1 4 313 302 312 337 355 324 294 282 321 2 342 4 24 46 47 29 26 26 39 67 56 63 77 85 85 86 96
345 342 346 338 325 319 315 329 344 358 0 349 318 333 342 3 322 294 306 298 292 305 302 295 314 338 348 344 351 357 1 29 38 29 30 33 38 64 68 80 88 96 95 94
342 339 339 337 336 333 327 326 332 347 1 5 357 340 343 6 344 330 310 309 302 304 305 310 310 322 330 332 333 331 335 349 1 8 8 7 13 48 94 93 98 102 104 108
331 333 336 335 338 336 333 336 338 339 347 346 352 349 344 338 342 341 324 316 325 303 288 289 300 315 327 330 327 322 323 325 328 329 314 321 286 246 209 104 104 102 105 109
329 327 330 333 334 336 336 337 336 335 337 343 340 337 339 340 344 340 333 323 319 320 319 316 322 328 332 336 334 326 327 329 345 349 287 275 259 253 246 145 119 111 111 113
325 326 326 327 328 330 333 335 336 335 335 336 337 337 334 333 336 336 346 347 322 321 328 329 335 341 341 341 331 323 324 313 324 131 209 217 186 150 135 134 135 122 116 119
318 320 321 321 322 324 328 330 332 331 330 331 330 328 328 331 332 326 319 328 322 322 332 328 339 338 351 1 350 353 352 347 162 184 233 241 181 141 141 143 141 133 130 131
312 316 317 318 319 320 320 322 325 327 327 327 327 326 324 321 323 327 323 315 315 310 325 324 323 320 323 355 16 357 338 314 267 245 248 253 264 266 190 159 156 146 135 137
310 313 315 314 313 314 317 319 320 320 320 319 320 320 319 319 316 312 314 312 309 308 307 314 314 307 307 314 347 44 63 89 139 230 244 232 240 225 218 224 211 191 213 248
312 312 313 313 313 313 315 317 317 318 318 316 315 316 314 312 310 308 306 304 303 303 302 301 301 304 305 301 296 295 294 291 277 253 225 223 237 246 252 262 269 275 277 283
316 316 314 314 315 315 315 316 316 315 316 314 312 313 312 310 307 304 301 299 297 296 296 295 295 290 287 286 286 285 283 281 276 271 263 263 265 261 254 258 265 282 287 291